カタログに戻る

SL-16 DEB

運用中LEO
NORAD 22224·DEBRIS·🇷🇺 Russia

打ち上げ Nov 17, 1992 から Baikonur Cosmodrome

Loading…

次のパス (今後24時間)

TLE

最新Source: Space-Track

元期: Sep 14, 2026, 13:03 UTC

1 22224U 92076F   26257.54399149  .00000019  00000-0  57523-4 0  9998
2 22224  70.9899  91.1232 0195847 218.1151 140.5965 13.74981658696729

AllMySatでSL-16 DEBをリアルタイム追跡

Download on the App Store